Weather History for KAIK - October, 2013

Change the Weather History Date:

Monday, October 21, 2013

  Actual Average Record
Temperature  
Mean Temperature 58 °F -  
Max Temperature 71 °F 76 °F 78 °F (2010)
Min Temperature 46 °F 47 °F 37 °F (2011)
Degree Days  
Heating Degree Days 6    
Growing Degree Days 8 (Base 50)    
Moisture  
Dew Point 50 °F    
Average Humidity 75    
Maximum Humidity 100    
Minimum Humidity 43    
Precipitation  
Precipitation 0.00 in - - ()
Sea Level Pressure  
Sea Level Pressure 30.11 in    
Wind  
Wind Speed 2 mph (East)    
Max Wind Speed 7 mph    
Max Gust Speed -    
Visibility 10 miles    
Events      
Averages and records for this station are not official NWS values.
T = Trace of Precipitation, MM = Missing Value Source: NWS Daily Summary

Daily Weather History Graph

Daily Weather History Graph

Search for Another Location

Airport or City:

Trip Planner

Search our weather history database for the weather conditions in past years. The results will help you decide how hot, cold, wet, or windy it might be!

Date:

Astronomy

Oct. 21, 2013 Rise Set
Actual Time 7:36 AM EDT 6:45 PM EDT
Civil Twilight 7:11 AM EDT 7:10 PM EDT
Nautical Twilight 6:42 AM EDT 7:39 PM EDT
Astronomical Twilight 6:13 AM EDT 8:08 PM EDT
Moon 8:44 PM EDT (10/21) 10:03 AM EDT (10/21)
Length of Visible Light 11h 59m
Length of Day
11h 09m
Waning Gibbous, 93% of the Moon is Illuminated
Oct 21
Waning Gibbous
Oct 26
Last Quarter
Nov 3
New
Nov 10
First Quarter
Nov 17
Full

Hourly Weather History & Observations

Time (EDT) Temp. Windchill Dew Point Humidity Pressure Visibility Wind Dir Wind Speed Gust Speed Precip Events Conditions
12:15 AM 53.6 °F - 46.4 °F 77% 30.10 in 10.0 mi Calm Calm - N/A   Clear
12:35 AM 51.8 °F - 46.4 °F 82% 30.11 in 10.0 mi Calm Calm - N/A   Clear
12:55 AM 51.8 °F - 46.4 °F 82% 30.10 in 10.0 mi Calm Calm - N/A   Clear
1:15 AM 51.8 °F - 46.4 °F 82% 30.10 in 10.0 mi Calm Calm - N/A   Clear
1:35 AM 50.0 °F - 48.2 °F 94% 30.10 in 10.0 mi Calm Calm - N/A   Clear
1:55 AM 50.0 °F - 50.0 °F 100% 30.10 in 10.0 mi Calm Calm - N/A   Clear
2:15 AM 50.0 °F - 46.4 °F 87% 30.10 in 10.0 mi ENE 3.5 mph - N/A   Clear
2:35 AM 51.8 °F - 50.0 °F 94% 30.11 in 10.0 mi East 4.6 mph - N/A   Clear
2:55 AM 50.0 °F - 50.0 °F 100% 30.10 in 10.0 mi Calm Calm - N/A   Clear
3:15 AM 51.8 °F - 50.0 °F 94% 30.11 in 10.0 mi Calm Calm - N/A   Clear
3:35 AM 51.8 °F - 50.0 °F 94% 30.11 in 10.0 mi Calm Calm - N/A   Clear
3:55 AM 51.8 °F - 50.0 °F 94% 30.11 in 10.0 mi ENE 3.5 mph - N/A   Clear
4:15 AM 50.0 °F - 50.0 °F 100% 30.11 in 10.0 mi ENE 3.5 mph - N/A   Scattered Clouds
4:35 AM 50.0 °F - 50.0 °F 100% 30.10 in 10.0 mi ENE 3.5 mph - N/A   Clear
4:55 AM 50.0 °F - 50.0 °F 100% 30.11 in 10.0 mi Calm Calm - N/A   Clear
5:15 AM 50.0 °F - 50.0 °F 100% 30.11 in 10.0 mi ENE 3.5 mph - N/A   Clear
5:35 AM 50.0 °F - 50.0 °F 100% 30.12 in 10.0 mi Calm Calm - N/A   Clear
5:55 AM 50.0 °F - 50.0 °F 100% 30.12 in 10.0 mi Calm Calm - N/A   Clear
6:15 AM 50.0 °F - 50.0 °F 100% 30.13 in 10.0 mi Calm Calm - N/A   Clear
6:35 AM 50.0 °F - 50.0 °F 100% 30.13 in 10.0 mi Calm Calm - N/A   Scattered Clouds
6:55 AM 48.2 °F - 48.2 °F 100% 30.13 in 10.0 mi Calm Calm - N/A   Clear
7:15 AM 50.0 °F - 50.0 °F 100% 30.13 in 10.0 mi Calm Calm - N/A   Clear
7:35 AM 46.4 °F 45.2 °F 46.4 °F 100% 30.13 in 10.0 mi ENE 3.5 mph - N/A   Clear
7:55 AM 48.2 °F - 48.2 °F 100% 30.13 in 10.0 mi East 4.6 mph - N/A   Clear
8:15 AM 50.0 °F - 50.0 °F 100% 30.14 in 10.0 mi Calm Calm - N/A   Clear
8:35 AM 50.0 °F - 50.0 °F 100% 30.15 in 10.0 mi Calm Calm - N/A   Clear
8:55 AM 51.8 °F - 51.8 °F 100% 30.15 in 10.0 mi Calm Calm - N/A   Clear
9:15 AM 55.4 °F - 50.0 °F 82% 30.16 in 10.0 mi East 5.8 mph - N/A   Clear
9:35 AM 57.2 °F - 50.0 °F 77% 30.16 in 10.0 mi ENE 4.6 mph - N/A   Clear
9:55 AM 57.2 °F - 48.2 °F 72% 30.16 in 10.0 mi East 4.6 mph - N/A   Clear
10:15 AM 59.0 °F - 48.2 °F 67% 30.17 in 10.0 mi East 3.5 mph - N/A   Clear
10:35 AM 60.8 °F - 48.2 °F 63% 30.16 in 10.0 mi East 4.6 mph - N/A   Clear
10:55 AM 62.6 °F - 50.0 °F 63% 30.16 in 10.0 mi East 4.6 mph - N/A   Clear
11:15 AM 62.6 °F - 50.0 °F 63% 30.16 in 10.0 mi East 6.9 mph - N/A   Clear
11:35 AM 64.4 °F - 50.0 °F 59% 30.16 in 10.0 mi East 5.8 mph - N/A   Clear
11:55 AM 66.2 °F - 50.0 °F 56% 30.16 in 10.0 mi East 5.8 mph - N/A   Clear
12:15 PM 68.0 °F - 50.0 °F 52% 30.15 in 10.0 mi East 4.6 mph - N/A   Clear
12:35 PM 68.0 °F - 50.0 °F 52% 30.15 in 10.0 mi SE 5.8 mph - N/A   Clear
12:55 PM 69.8 °F - 50.0 °F 49% 30.15 in 10.0 mi SE 3.5 mph - N/A   Clear
1:15 PM 69.8 °F - 48.2 °F 46% 30.14 in 10.0 mi ESE 3.5 mph - N/A   Clear
1:35 PM 68.0 °F - 50.0 °F 52% 30.13 in 10.0 mi SE 4.6 mph - N/A   Clear
1:55 PM 68.0 °F - 48.2 °F 49% 30.12 in 10.0 mi Calm Calm - N/A   Clear
2:15 PM 69.8 °F - 48.2 °F 46% 30.10 in 10.0 mi ESE 4.6 mph - N/A   Clear
2:35 PM 69.8 °F - 48.2 °F 46% 30.10 in 10.0 mi Calm Calm - N/A   Clear
2:55 PM 69.8 °F - 50.0 °F 49% 30.10 in 10.0 mi SSE 4.6 mph - N/A   Clear
3:15 PM 69.8 °F - 48.2 °F 46% 30.10 in 10.0 mi Calm Calm - N/A   Clear
3:35 PM 69.8 °F - 48.2 °F 46% 30.09 in 10.0 mi Calm Calm - N/A   Clear
3:55 PM 69.8 °F - 48.2 °F 46% 30.09 in 10.0 mi Calm Calm - N/A   Clear
4:15 PM 71.6 °F - 48.2 °F 43% 30.08 in 10.0 mi Calm Calm - N/A   Clear
4:35 PM 69.8 °F - 48.2 °F 46% 30.07 in 10.0 mi NE 3.5 mph - N/A   Clear
4:55 PM 69.8 °F - 50.0 °F 49% 30.08 in 10.0 mi East 4.6 mph - N/A   Clear
5:15 PM 69.8 °F - 48.2 °F 46% 30.08 in 10.0 mi Calm Calm - N/A   Clear
5:35 PM 69.8 °F - 50.0 °F 49% 30.07 in 10.0 mi Calm Calm - N/A   Clear
5:55 PM 68.0 °F - 50.0 °F 52% 30.08 in 10.0 mi Calm Calm - N/A   Clear
6:15 PM 68.0 °F - 51.8 °F 56% 30.07 in 10.0 mi SE 3.5 mph - N/A   Clear
6:35 PM 64.4 °F - 51.8 °F 64% 30.07 in 10.0 mi SSE 4.6 mph - N/A   Clear
6:55 PM 64.4 °F - 51.8 °F 64% 30.07 in 10.0 mi SSE 3.5 mph - N/A   Clear
7:15 PM 62.6 °F - 51.8 °F 68% 30.07 in 10.0 mi Calm Calm - N/A   Clear
7:35 PM 62.6 °F - 51.8 °F 68% 30.06 in 10.0 mi Calm Calm - N/A   Clear
7:55 PM 62.6 °F - 51.8 °F 68% 30.07 in 10.0 mi Calm Calm - N/A   Clear
8:15 PM 62.6 °F - 51.8 °F 68% 30.08 in 10.0 mi Calm Calm - N/A   Clear
8:35 PM 62.6 °F - 53.6 °F 72% 30.07 in 10.0 mi Calm Calm - N/A   Clear
8:55 PM 60.8 °F - 51.8 °F 72% 30.08 in 10.0 mi Calm Calm - N/A   Clear
9:15 PM 59.0 °F - 51.8 °F 77% 30.06 in 10.0 mi Calm Calm - N/A   Clear
9:35 PM 59.0 °F - 51.8 °F 77% 30.06 in 10.0 mi NE 3.5 mph - N/A   Clear
9:55 PM 60.8 °F - 51.8 °F 72% 30.05 in 10.0 mi Calm Calm - N/A   Clear
10:15 PM 59.0 °F - 51.8 °F 77% 30.06 in 10.0 mi Calm Calm - N/A   Clear
10:35 PM 59.0 °F - 53.6 °F 82% 30.06 in 10.0 mi SSE 3.5 mph - N/A   Clear
10:55 PM 59.0 °F - 53.6 °F 82% 30.08 in 10.0 mi South 3.5 mph - N/A   Clear
11:15 PM 59.0 °F - 55.4 °F 88% 30.08 in 10.0 mi South 4.6 mph - N/A   Clear
11:35 PM 59.0 °F - 55.4 °F 88% 30.07 in 10.0 mi SSE 4.6 mph - N/A   Clear
11:55 PM 59.0 °F - 55.4 °F 88% 30.08 in 10.0 mi South 3.5 mph - N/A   Clear